Regional Weather Roundup
Issued by NWS

Home | Current Version | Previous Version | Text Only | Print | Product List | Glossary Off
Versions: 1 2 3 4 5 6 7 8 9 10 11 12 13 14 15 16 17 18 19 20 21 22 23 24 25 26 27 28 29 30 31 32 33 34 35 36 37 38 39 40 41 42 43 44 45 46 47 48 49 50

000
ASUS43 KLSX 012210
RWRMO

WEATHER SUMMARY FOR MISSOURI
NATIONAL WEATHER SERVICE SPRINGFIELD MO
500 PM CDT TUE SEP 01 2015

NOTE: "FAIR" INDICATES FEW OR NO CLOUDS BELOW 12,000 FEET WITH NO
       SIGNIFICANT WEATHER AND/OR OBSTRUCTIONS TO VISIBILITY.
       CURRENT SKY AND/OR WEATHER CONDITIONS ARE NOT AVAILABLE FOR
       CHILLICOTHE AND FARMINGTON.

MOZ001>031-035>038-043-044-053-054-012300-
...NORTHERN AND WESTERN MISSOURI...

CITY           SKY/WX    TMP DP  RH WIND       PRES   REMARKS
KANSAS CTY INT MOSUNNY   90  68  48 S16       29.98F HX  94
KANSAS C DTWN  SUNNY     90  68  48 SW13      29.97F HX  94
LEE`S SUMMIT   SUNNY     88  65  46 S14       30.00F HX  90
ST JOSEPH      SUNNY     89  68  49 S14       29.96F HX  93
CHILLICOTHE      N/A     91  71  51 S8        29.99F HX  97
KIRKSVILLE     SUNNY     88  68  51 S8        30.02F HX  91

$$
MOZ066>068-077>081-088>096-101>105-012300-
...SOUTHWEST MISSOURI...

CITY           SKY/WX    TMP DP  RH WIND       PRES   REMARKS
SPRINGFIELD    MOSUNNY   88  65  46 S9        30.05F HX  90
JOPLIN         SUNNY     87  67  51 S14       30.03F HX  90

$$
MOZ032>034-039>042-045>050-055>058-069>072-012300-
...CENTRAL MISSOURI...

CITY           SKY/WX    TMP DP  RH WIND       PRES   REMARKS
COLUMBIA       MOSUNNY   90  69  50 VRB3      30.03F HX  94
JEFFERSON CITY SUNNY     91  64  40 S9        30.01S HX  92
ROLLA          MOSUNNY   87  67  51 S12       30.05F HX  90
SEDALIA        MOSUNNY   91  67  44 S13       30.03F HX  94
WHITEMAN AFB   MOSUNNY   91  67  45 SW14      30.00F HX  94
WARRENSBURG    SUNNY     90  64  43 SE10      30.00F HX  91
OSAGE BEACH    PTSUNNY   90  66  45 S7        30.04F HX  92

$$
MOZ051-052-059>065-012300-
...EAST CENTRAL MISSOURI...

CITY           SKY/WX    TMP DP  RH WIND       PRES   REMARKS
ST LOUIS INTL  MOSUNNY   91  68  46 S10       30.04F HX  95
SPIRIT OF STL  MOSUNNY   90  71  53 S6        30.02F HX  96
ST CHARLES     SUNNY     90  70  51 SW9       30.02S HX  95

$$
MOZ072>076-082>087-097>100-106>115-012300-
...SOUTH CENTRAL AND SOUTHEAST MISSOURI...

CITY           SKY/WX    TMP DP  RH WIND       PRES   REMARKS
CAPE GIRARDEAU MOSUNNY   87  70  56 CALM      30.05F HX  92
FARMINGTON     MOSUNNY   88  68  51 S8        30.10S HX  91
POPLAR BLUFF   MOSUNNY   87  69  54 SW3       30.05F HX  91
WEST PLAINS    PTSUNNY   82  68  62 SE5       30.09F

$$


USA.gov is the U.S. government's official web portal to all federal, state and local government web resources and services.